GFSNE_con_mucape_057.txt.gz
CAPE
1407 1178 1855 1246 1142 1264 525 271 453 543 997 923 1010 916 545 612 686 867 527 526 753 1381 1444 1355 1340 1485 1145 1213 1065 1250 1396 1322 1005 937 586 305 145 411
1855 1966 1582 1562 1035 2016 1173 1003 966 581 567 739 650 1426 1309 1045 916 777 725 1289 1531 1624 1784 1922 1955 1872 1734 1346 1560 1989 2005 2069 1798 1356 1691 1102 929 553
1770 1736 1803 1680 1533 1768 2424 2070 1564 1069 983 891 1466 1626 1372 1275 1297 1232 1401 1396 1472 1750 1825 1880 2096 2040 1883 1817 2164 2184 2281 2483 2170 1963 1634 1221 1282 715
2081 1771 1863 2161 1977 1653 2022 1897 2019 2146 2011 1375 1196 1214 2167 2405 2307 2197 2176 2040 1930 2102 1821 2257 2329 1810 1693 2652 2773 2433 2456 2515 2190 2080 2122 2012 1919 1571
1973 2116 2104 1685 2358 2485 2238 2205 2450 2219 2887 2528 2417 2605 2582 2244 2078 2137 2280 2504 2560 2380 2443 2339 1814 2923 3443 3207 3247 3037 2761 2310 2214 2013 1893 2221 2164 1856
2180 2045 2015 2305 2095 2276 2609 2583 2341 2370 2161 2139 2225 2258 2512 2560 2458 2334 2481 2341 2276 2027 1797 2093 3506 3471 3314 3381 3224 2928 2834 2778 2646 2365 1788 1595 1565 1204
1941 1967 2335 2164 2446 2521 2596 2684 2802 2868 2798 2808 2777 3059 3162 2757 2409 2443 2222 1651 2495 2330 2732 3523 3039 3193 3522 3191 3272 3259 3152 2669 1236 738 577 416 277 198
2258 2140 2222 2418 2321 2468 2654 2879 2947 3016 3165 3199 2860 2738 2442 2202 2072 2061 1940 2605 2585 2846 3464 3071 3073 3306 3223 3237 3396 2742 1490 722 445 185 23 0 0 0
2352 2269 2279 2226 2346 2401 2279 2139 1994 2010 2143 2081 2031 1994 1968 1966 2355 2228 2377 2752 2685 2782 3178 2819 3036 2945 3145 3400 2326 1391 882 486 22 0 0 0 0 0
2421 2495 2302 2260 2372 2355 2184 2264 2241 2101 1982 1926 2044 2287 2522 2697 2505 2337 2612 2893 3061 3020 2848 3124 3098 2938 3151 2641 1589 1111 780 10 0 0 0 0 0 0
1613 1871 2190 2423 2458 2418 2187 2367 2563 2953 3167 3098 2999 2745 2500 2542 2434 2540 3081 3319 3523 3437 3206 3225 3045 2738 2714 1492 915 720 0 0 0 0 0 0 0 0
1195 1565 2034 2230 2466 2592 2447 2377 2157 1824 1790 2068 2274 2417 2574 2808 2936 3250 3351 3433 3318 3150 2902 2856 2843 2305 1625 1103 453 0 0 0 0 0 0 0 0 0
1201 1077 1361 1523 1485 1383 1359 1394 1975 2272 2323 2566 2801 2989 2731 2783 3110 3284 3548 3197 3020 3099 3019 2856 2623 1833 882 415 34 0 0 0 0 0 0 0 0 0
1300 1316 1235 1542 1727 1677 1631 1657 1661 1583 1965 2362 2430 2344 2714 2448 2850 3360 3372 2993 3018 3000 3008 2848 2439 1729 705 181 8 0 0 0 0 0 0 0 0 0
1919 1572 1751 1876 1903 1858 1790 2057 2046 1906 1753 1740 1843 2635 2760 2714 3170 3155 3077 3058 2636 2570 2650 2571 2560 1905 234 169 0 0 0 0 0 0 0 0 0 0
2497 2223 1999 2000 1884 1730 2255 1928 1383 1283 1428 1957 2756 2911 2960 3171 2912 2961 2413 2105 2330 1786 1233 2258 1914 297 171 134 0 0 0 0 0 0 0 0 0 0
2910 2785 2585 2363 2070 2017 2090 2656 2764 2544 2827 3020 2945 3382 3536 3075 2843 2192 2043 2202 1886 1049 687 422 194 197 173 140 0 0 0 0 0 0 0 0 0 0
2724 2614 2513 2451 2363 2235 2089 2672 2766 3048 3121 3105 3104 3111 2687 2880 1932 1931 1919 1215 991 595 261 239 250 232 206 18 0 0 0 0 0 0 0 0 0 0
2779 2328 2315 2283 2716 2376 2109 2135 3315 3513 3487 3351 2831 2439 2287 1869 1391 994 826 902 780 297 223 198 188 170 2 0 0 0 0 0 0 0 0 0 0 0
2247 1965 2266 2613 2516 2650 2918 2964 2850 2857 2823 2450 2368 2213 1671 1309 934 794 971 919 619 191 170 188 127 0 0 0 0 0 0 0 0 0 0 0 0 0
1929 2044 2128 1683 1225 1314 1362 1401 1724 1709 2181 2285 1845 1598 1283 986 815 860 863 787 361 172 78 0 0 0 0 0 0 0 0 1 0 0 0 0 0 0
1760 1515 1091 754 461 247 158 237 678 1106 1426 1178 1013 1186 1094 1164 1098 1009 889 370 127 33 0 0 4 2 0 0 0 0 0 3 0 0 0 0 0 0
1239 989 876 583 385 228 27 4 32 600 825 881 1249 1067 808 811 560 305 195 19 0 0 0 0 0 1 0 0 7 2 5 12 14 4 4 0 0 0

GFSNE_con_mucape_060.txt.gz
CAPE
1002 640 952 1059 652 766 1570 306 300 293 874 700 746 834 749 537 483 539 573 1291 1221 1464 1569 1528 1773 1855 1888 1821 1648 1942 1899 1914 1884 1789 1283 576 754 662
1434 1556 1241 1086 1002 1125 1779 1054 747 694 620 652 571 1040 1250 1009 1008 919 803 1240 1527 1666 1747 1693 1795 2111 1993 1596 1591 2432 2037 1616 1958 2158 1774 1890 1433 949
1320 1254 1328 1584 1560 1275 1461 1607 1722 1604 1008 793 759 1392 1238 1254 2265 2214 1991 1967 2009 2044 2100 2010 2145 2185 1897 2036 3233 3121 2789 2456 1724 1991 2095 1868 1377 1191
1155 1349 1621 1781 1898 1705 1500 1518 1368 1461 1651 1377 1602 2160 2166 2240 1988 1900 2332 2174 2313 2362 2301 2199 2073 1818 3267 3330 3105 3105 2883 2715 2632 2468 2242 2020 2222 2123
1340 1402 1545 1483 1608 2077 2044 1966 1995 2367 2640 2695 2454 2119 1964 1884 2460 2572 2073 2048 1968 1909 1929 2173 3172 3273 3083 3218 2979 3089 2852 2775 2644 2559 2194 1515 697 497
1394 1470 1747 1744 1653 1463 1879 2050 2147 2188 2009 1892 1810 1974 2365 2569 2963 2603 2585 1872 1494 1946 2157 2730 2763 2784 2971 3106 3056 3065 2190 2319 1606 520 343 169 149 135
1481 1554 1676 1889 2090 1842 2127 2071 2139 2183 2220 2363 2527 2657 3001 3199 3042 2474 1908 1720 1951 2129 2296 2949 2677 2668 2908 3104 3157 2597 1782 818 508 207 0 0 0 0
1502 1650 1688 1647 1875 2127 2133 2221 2309 2349 2357 2506 2606 2878 2902 2423 1955 1811 2112 2189 2092 2100 2808 2474 2629 2798 2803 2991 2607 1703 982 660 282 0 0 0 0 0
1701 1786 1802 1830 1938 1933 2174 2310 2287 2380 2611 2642 2561 2426 2172 1964 2000 2371 2480 2218 2199 2348 2783 3032 2541 2889 2800 2530 1802 1280 828 364 0 0 0 0 0 0
1723 2003 2068 2006 1999 2029 1991 1975 2049 2109 2122 2053 1991 1966 1944 2342 2831 2719 2391 2351 2646 2846 3255 3280 3129 2993 2576 1842 975 769 539 14 0 0 0 0 0 0
1375 1327 1695 1756 1913 2059 2060 2063 2148 2160 2232 2679 2860 2957 3041 2804 2495 2419 2408 2419 2727 3062 3083 3120 2964 2956 2353 1484 731 362 0 0 0 0 0 0 0 0
1638 1423 1386 1706 1936 2174 2214 2135 1989 1898 1757 1744 1719 1701 2078 2109 2299 2798 2720 2675 2963 3051 2852 2911 2852 2446 1662 1018 600 7 0 0 0 0 0 0 0 0
1511 1328 1213 1225 1501 1603 1661 1783 1777 1742 1807 2028 2272 2287 2231 2613 2816 2527 2593 2609 3047 3145 3051 2910 2627 2308 1297 836 106 15 0 0 0 0 0 0 0 0
1331 1212 1119 995 967 1268 1596 1582 1319 1174 1151 1175 1438 1707 2100 2315 2501 2518 2873 3290 3159 2994 3058 2857 2374 1874 1216 775 130 67 0 0 0 0 0 0 0 0
1652 1470 1292 1154 1063 979 1074 1100 1132 1263 1529 1609 1627 1588 1640 1761 2590 2720 3179 2961 3268 2454 2338 2469 2378 2079 1748 583 121 86 0 0 0 0 0 0 0 0
2243 2115 1941 1746 1622 1502 1504 1651 1688 1491 1125 941 1043 1267 1545 2076 2607 2881 2883 2649 2083 1846 1323 1552 1996 2104 1749 81 80 73 0 0 0 0 0 0 0 0
2460 2122 2094 2146 2114 1989 1866 1738 1693 1677 1605 1423 1242 1536 2490 2591 2811 2822 2332 1862 1922 1514 1003 966 686 265 80 82 61 9 0 0 0 0 0 0 0 0
2338 2048 1903 1905 1997 2147 2213 2185 2042 1899 1900 2038 2336 2705 2771 2902 2863 2396 2194 1816 1377 606 781 659 220 172 156 94 29 1 0 0 0 0 0 0 0 0
2724 2573 2404 2279 2129 2105 2105 2249 2144 2064 1992 1953 2439 2640 2631 2658 2347 1996 1429 1002 571 554 713 544 134 121 142 137 1 0 0 0 0 0 0 0 0 0
2607 2803 2619 2326 2383 2182 2007 2082 1967 1914 2246 2102 1503 1517 1629 1867 1998 1701 1138 649 599 719 651 419 94 83 71 0 0 0 0 0 0 0 0 0 0 0
2488 2414 2278 2229 2211 2038 2042 2191 2290 1950 1360 686 276 361 1032 1502 1072 1097 942 625 634 555 427 177 90 23 0 0 0 0 0 0 0 0 0 0 0 0
1873 1657 1797 1990 1893 1758 1558 1056 880 701 283 58 27 335 486 670 842 806 1078 1054 845 307 222 13 0 0 0 0 0 0 0 0 0 0 0 0 0 0
1662 1476 1586 1648 1356 1020 617 364 263 215 130 65 82 250 449 468 513 568 640 635 211 115 40 0 0 0 0 0 0 13 22 3 0 0 0 2 0 0

GFSNE_con_mucape_063.txt.gz
CAPE
824 599 626 863 623 621 1537 371 348 247 366 665 496 818 972 830 721 727 836 1024 1476 1799 1906 1910 1905 1902 1910 2022 1492 1623 2422 2147 1720 1577 1637 1713 1434 1042
1427 1167 860 732 880 630 1523 1405 907 736 629 575 644 725 1134 1231 1253 2103 1879 1964 2084 2170 2157 2097 2199 2116 2192 1880 2779 3162 3093 2892 2561 1872 1609 1617 1841 1506
1160 1455 1286 1258 1491 1523 1251 1375 1460 1582 1412 1258 1223 1311 1710 1945 1797 1728 2507 2088 2070 1907 1637 1625 1759 1762 2727 3148 3162 3039 2916 2551 2396 2280 2239 2164 1893 1833
1225 1119 1274 1238 1509 1841 1646 1505 1532 1210 1327 1303 1473 2161 2143 1752 1653 2347 2548 2143 2357 1428 1609 2127 2899 2669 2776 3177 3145 2942 2831 2528 2126 2099 1932 1121 566 440
1272 1522 1322 1252 1706 1669 1824 1999 1868 1861 2110 2344 2222 1855 1632 1883 2338 2675 2783 2484 1461 1759 1690 2332 2885 2515 2722 2872 2968 2995 2663 1870 1737 758 253 24 0 0
1411 1437 1434 1494 1651 1638 1402 1714 1947 1819 1884 1858 1849 1916 2133 2303 2654 2713 2288 1686 1936 2019 1789 2208 2684 2526 2768 2963 3077 2897 2229 1470 753 205 0 0 0 0
1576 1505 1456 1515 1671 1860 1778 1676 1701 1917 1957 1973 2034 2092 2160 2225 2367 2284 1803 1992 2255 1954 1870 2146 2427 2590 2734 2778 2685 2231 1431 912 385 0 0 0 0 0
1379 1320 1357 1502 1587 1670 1886 2176 2239 2172 2049 2091 2180 2182 2165 2150 2083 1850 1766 2291 2464 2015 2233 2430 2701 2673 2663 2453 2244 1616 1037 646 192 0 0 0 0 0
1149 1222 1290 1334 1549 1666 1667 1689 1867 2128 2261 2283 2325 2344 2279 2131 1871 1903 2452 2581 2074 2028 2232 2799 2911 2935 2491 2069 1943 1026 643 198 0 0 0 0 0 0
1182 1260 1321 1339 1585 1800 1856 1887 1900 1833 1783 1790 1892 1976 2077 2318 2273 2673 2611 2041 2101 2247 2484 2883 2803 2816 2281 1797 1546 693 272 0 0 0 0 0 0 0
1145 1205 1377 1514 1591 1757 1879 1843 1874 1984 1926 1924 2020 1950 2131 2346 2406 2287 1981 2011 2342 2482 2294 2734 2762 2651 2383 2068 1220 632 16 0 0 0 0 0 0 0
1320 1266 1246 1325 1436 1506 1525 1454 1486 1720 1801 1646 1602 1593 1516 1689 2065 1996 2018 2535 2633 2248 2546 2688 2663 2627 1888 1620 1092 538 3 0 0 0 0 0 0 0
880 884 966 1101 1342 1461 1474 1442 1478 1488 1403 1380 1466 1525 1640 1884 1923 2004 2578 2507 2338 2414 2436 2679 2511 2841 2005 1439 1092 192 9 0 0 0 0 0 0 0
929 835 765 907 961 1066 1152 1273 1406 1420 1412 1537 1691 1396 1054 1104 1268 1703 2036 2286 2712 2996 2897 2658 2651 2072 1831 1106 839 69 9 0 0 0 0 0 0 0
1085 1103 1159 1066 906 917 964 986 952 976 1189 1360 1164 1000 1283 1408 1350 1482 1748 2381 2852 2838 2711 2500 2548 2228 1760 1434 1183 82 27 2 0 0 0 0 0 0
1384 1463 1499 1471 1445 1388 1348 1363 1283 1199 1074 1039 1283 1563 1172 917 1112 1461 2002 2619 2672 2468 2279 1798 1245 1798 1765 1550 1265 22 28 0 0 0 0 0 0 0
1550 1563 1569 1620 1753 1798 1796 1795 1765 1679 1487 1553 1518 1420 1182 1013 1486 2119 2501 2740 2400 2076 1617 1123 897 1176 1211 613 35 22 9 0 0 0 0 0 0 0
1499 1557 1394 1340 1342 1427 1558 1691 1971 1963 1840 1720 1642 1553 1621 1757 2168 2273 2380 2436 1887 1758 1724 1124 477 601 437 70 49 7 0 0 0 0 0 0 0 0
1938 1967 1890 1649 1270 1139 1305 1469 1635 1744 2014 2093 2031 1936 1789 1698 2419 1861 1919 1951 1727 1314 800 439 534 650 533 148 43 8 0 0 0 0 0 0 0 0
2140 2263 2280 2210 2120 2014 2073 2089 2016 1939 2028 2089 2061 1981 1743 1957 1394 1255 1296 1417 1174 1009 694 479 511 305 404 146 49 0 0 0 0 0 0 0 0 0
2362 2420 2194 2078 2264 2436 2577 2205 2240 2118 1995 1791 1953 1678 1722 956 922 880 939 791 721 712 592 454 508 233 216 70 3 0 0 0 0 0 0 0 0 0
2536 2434 2380 2291 1980 1985 2072 1899 1881 1973 1834 1592 1600 1373 628 330 307 383 390 435 511 418 362 366 384 274 92 42 0 0 0 0 0 0 0 0 0 1
2406 2292 2159 2066 1748 1632 1629 1418 1284 1285 1362 1499 1200 737 353 92 134 275 282 280 264 249 203 216 94 10 0 8 1 0 0 0 0 0 0 0 0 0

GFSNE_con_mucape_069.txt.gz
CAPE
1906 2090 1867 1727 1642 1527 1900 1428 1384 1154 1015 1360 1405 1988 2429 2702 2284 2791 3218 2359 2059 1963 1648 1611 2505 2434 2624 2772 2965 3059 2923 2763 2568 2137 2064 1927 1890 1910
1776 2197 2039 1446 1560 1605 1689 1860 1750 1838 1503 1592 1675 2173 2768 2987 2254 3028 3380 2372 2644 1861 1809 1512 2588 2545 2573 2726 2951 2968 2724 2689 2248 1888 1180 329 129 60
2008 2099 2244 2439 1654 1719 2079 2199 2152 2005 1970 1826 2170 2432 3156 3246 3047 3265 3105 3013 2161 2126 2011 1663 2186 2499 2550 2718 2862 2767 2720 2371 1631 1430 83 0 0 0
2017 2071 1913 2018 2632 2570 2271 2753 2440 2591 2320 2428 2525 2483 2910 3127 3337 3522 2925 2287 2944 2075 1979 1657 1971 2390 2489 2704 2760 2599 2311 2041 1427 256 0 0 0 0
1998 2172 2127 2281 2508 2210 2639 2560 2438 2723 2826 2689 2534 2497 2663 2655 2972 2743 3123 3263 2476 1839 1634 1672 2105 2514 2413 2466 2301 2044 1807 1319 340 59 0 0 0 0
2194 2147 2175 2294 2534 2830 2637 2800 2736 2740 2602 2822 2321 2367 2366 2665 2952 2710 2383 2344 2661 2667 1778 2030 2574 2615 2535 2217 2009 1571 1519 1109 154 0 0 0 0 0
2305 2247 2150 2017 1830 1962 2082 2377 2697 2871 2460 2310 2223 2176 2137 2103 2218 2494 2489 2646 2921 3031 2302 2632 3151 3497 2420 2121 1827 1548 1394 1177 35 0 0 0 0 0
2397 2357 2285 1453 1291 1127 1184 1177 1424 2688 2851 2527 2049 2124 2556 2689 2406 2446 2526 2589 2019 2195 2837 2729 3115 3466 2228 2062 1759 1454 1308 396 8 0 0 0 0 0
2519 2436 2243 1747 1768 2253 1605 1136 1070 1082 1231 2383 2541 2345 2527 2466 2846 2902 2832 2930 2438 2072 2470 2877 3242 3313 2132 1916 2016 1482 1210 660 498 0 0 0 0 0
2242 2508 2516 2386 2259 2099 2206 2162 2171 2169 1809 1416 1880 2340 2619 2855 3052 2933 3068 2901 2495 2329 3080 3305 2877 3488 1994 1844 1807 1716 1284 1085 824 0 0 0 0 0
2160 2195 2513 2451 2174 1504 1888 2129 2225 2252 1522 1592 1605 1686 1572 1410 1539 2086 2163 1905 1509 1354 2647 3521 2783 3266 1882 1790 1515 1567 1069 894 620 0 0 0 0 0
1696 2303 1182 1492 1554 1364 1409 1964 2185 2071 1777 1692 1986 1439 1112 988 1094 1263 1963 1934 1564 1626 2289 3024 2584 3196 2647 1620 1545 1383 1198 785 282 0 0 0 0 0
636 635 680 597 726 963 985 2263 2293 1878 1229 1782 1794 1859 1964 2158 2243 1568 1697 1998 1712 1688 1882 3124 2562 3247 2806 1924 1378 1524 1059 656 230 17 0 0 0 0
1224 928 887 365 472 449 641 668 1116 1250 1250 960 968 1426 1564 1612 1686 1997 2679 2528 2137 2581 2864 2787 2794 2965 2903 2318 1846 1139 772 559 259 31 0 0 0 0
941 934 656 482 224 486 603 509 503 427 911 940 921 1026 1262 1470 1956 2014 2075 2268 2541 2640 2306 3116 2799 3635 2820 2236 2463 1825 560 428 326 8 0 0 0 0
822 628 501 359 271 550 377 264 345 725 852 880 828 929 1247 1530 1578 1614 1624 1915 2198 2304 2508 2694 2637 2828 2397 2118 2035 2210 788 289 113 16 5 0 0 0
849 746 863 980 1057 1093 1102 1216 1286 1009 878 1070 1209 1215 1372 1558 1657 1772 1903 2069 2075 2058 1958 2771 1614 2124 1914 1803 1879 1517 1295 291 136 26 5 0 0 0
936 1074 1360 1239 1102 992 1209 1409 1380 1119 1276 1121 1165 1218 1342 1530 1742 1985 2077 2073 2081 2069 1946 3006 1555 1639 1414 1441 1055 1036 542 186 161 89 24 0 0 0
914 1247 1401 1457 1296 1076 1299 1484 1457 1384 1954 1210 1107 1177 1351 1491 1679 1958 2131 2238 2171 2128 2213 3120 1923 1652 1085 1012 688 399 289 163 119 115 32 0 0 0
1088 1336 1674 1354 1300 1577 1510 1344 1410 1714 1894 1665 1312 1252 1383 1530 1683 1964 2093 2267 2210 2398 2533 1593 1767 1410 1019 1186 986 282 206 117 70 44 30 0 0 0
1163 1146 1435 1761 1785 1965 1945 1867 1781 1336 1799 1988 1606 1583 1749 2111 2105 2102 2155 1697 1911 1875 1295 1371 1192 782 507 366 230 179 181 137 105 78 14 0 8 6
2011 1404 1294 1838 1702 1791 1914 1854 2041 1540 1691 1940 2147 2051 2075 1754 1723 1909 1855 1398 1225 1251 1400 1210 648 588 559 477 269 214 205 177 120 37 0 0 0 1
2129 2306 2077 1819 1985 2259 1989 1675 1507 1461 1658 1957 2278 2133 1778 2446 1552 1120 947 947 943 1063 705 295 285 239 154 174 164 205 171 119 41 27 8 0 0 0

GFSNE_con_mucape_072.txt.gz
CAPE
1664 1727 1883 1458 1489 1464 1544 1537 1517 1123 1076 2063 1565 2102 2178 2262 2314 2567 2730 2406 2472 1956 1902 1472 2202 2546 2534 2688 2780 2861 2778 2674 2342 1923 777 169 59 90
1198 1884 2220 1272 1661 1497 1413 1491 1559 1516 1398 1613 1678 2082 2889 2774 2212 2705 2496 2486 2640 1847 1924 1499 2193 2320 2420 2666 2853 2762 2703 2427 1731 1569 49 0 0 0
1669 1754 2273 2198 1569 1303 1571 1615 1641 1626 1455 1391 1917 2236 3363 3351 3262 3184 2469 2161 1337 1903 1748 1482 1783 2139 2442 2602 2687 2526 2255 2078 1365 258 0 0 0 0
2138 1962 1977 1626 2485 2364 1837 2024 1843 1869 1862 2018 2470 2281 2659 2941 2968 3317 2617 1972 2348 1497 1381 1429 1786 2207 2383 2419 2283 1961 1621 1398 737 23 0 0 0 0
2150 2106 2212 2024 2145 1667 2197 1644 1768 2119 2240 2218 2083 1960 2161 2518 2645 3285 2595 2628 1817 1175 1008 1500 2309 2491 2341 2274 2002 1615 1497 1378 1156 102 0 0 0 0
2437 2370 2129 2144 2418 2685 2522 2708 2637 2359 2498 2114 1955 1827 1854 2050 2499 2019 1603 1536 2006 1908 1385 1346 2385 2864 2338 2112 1803 1510 1353 1225 404 0 0 0 0 0
2603 2718 2425 1761 1699 2077 2362 3127 3285 2615 1947 1707 1714 1761 1728 1693 2365 1489 1625 1433 2279 1746 2198 1546 1999 2221 3021 1544 1705 1641 1221 1161 213 268 0 0 0 0
2576 2790 2712 1741 1564 1649 1553 1298 1299 2655 2767 2368 1812 2029 3136 2439 1972 1487 1576 1314 1528 1595 1956 1195 1609 3082 3399 1912 1478 1675 1384 1162 991 862 1 0 0 0
2442 2407 2478 1953 2019 2349 1504 1095 1108 1069 1066 2185 2537 2655 2934 2377 2646 2609 3248 2330 2193 1857 1816 1164 1504 2833 3736 1939 1456 1505 1557 1199 977 792 153 0 0 0
2183 2238 2856 2821 2213 2185 2338 2123 2271 2226 1934 1609 1878 2058 2564 2634 3237 3048 3281 3169 2414 1995 2639 1885 1726 1781 3591 2056 1431 1514 1291 1189 805 658 120 0 0 0
2333 2662 2908 3077 2360 1601 2192 2188 2332 2221 1220 1554 1658 1579 1527 1465 1471 1619 1259 936 646 448 802 831 1533 1965 3304 2557 1480 1286 1235 1044 869 565 78 0 0 0
1653 2514 1637 1767 1948 1755 2460 2576 2590 1988 1318 1186 1769 1359 1306 1391 1171 1425 1682 1105 501 339 816 1145 1500 1599 2103 2987 2084 1343 1022 1160 896 472 162 0 0 0
731 461 484 647 1071 1034 1339 2835 2430 1442 778 1133 983 905 1049 1517 2319 2066 2220 1893 785 320 242 1459 1279 1497 1842 2546 3143 1898 1136 1085 603 362 197 0 0 0
1461 989 1208 587 243 588 643 649 1066 903 454 47 49 98 152 368 589 1278 3422 3248 2300 3372 2960 3546 1889 1703 1832 1839 2369 3759 1656 1382 514 256 180 1 0 0
1067 1156 1031 886 813 680 551 342 217 602 489 59 94 65 77 63 1429 2199 2918 4367 3763 3517 2823 3386 2998 3163 2518 2388 2513 2838 3239 1256 674 181 134 0 0 0
876 832 829 798 825 868 663 402 201 629 539 458 202 97 182 71 161 568 1071 1191 1491 1438 3521 3351 3855 3609 2941 2544 2854 2961 2996 1990 751 310 152 75 1 0
916 977 1190 1194 1285 1361 1182 998 1027 844 747 796 816 704 474 184 173 428 707 997 1041 922 806 1381 3618 3604 3207 3134 2355 2451 2571 2793 1428 521 139 88 51 30
1032 1114 1540 1682 1683 1650 1414 1203 1188 961 1311 1255 1106 946 817 550 340 456 692 924 1079 1076 1045 1243 3036 2743 1916 1660 1501 2416 2962 1882 2395 507 154 99 60 5
1093 1507 1776 1786 1970 1975 1955 1775 1566 1339 1880 1224 1141 1057 788 726 517 564 646 1068 1801 1667 1570 1453 1824 2451 2182 1840 1389 897 1750 2657 929 356 121 102 56 26
1053 1189 1560 2030 2269 2671 2139 2194 2067 2019 1953 1789 1632 1444 1231 960 861 878 904 1392 1446 1779 2043 2443 2705 2691 2232 2005 1715 1540 547 1032 767 244 134 78 54 20
1082 1163 1229 1779 2264 2288 2313 2545 2676 2559 2293 2302 2234 2015 1777 1492 1317 1233 1113 772 1102 1879 2769 2546 2325 1696 2032 1964 1498 1158 366 283 190 191 113 59 41 18
1753 1773 1841 1800 2081 2673 2810 2888 2806 2764 2428 2289 2465 2394 2097 2321 2298 2116 1968 1943 2062 2142 2644 2558 2028 1261 1087 1377 1386 1111 322 165 129 71 90 94 82 47
1870 2303 2315 2463 2456 2627 2723 2695 2727 2757 2369 2247 2265 2217 2087 1578 2408 2793 2589 2461 2758 2363 2048 1265 984 1245 1206 879 458 679 185 109 70 72 55 55 0 0

GFSNE_con_mucape_075.txt.gz
CAPE
1667 1905 2191 1593 1026 1282 1108 1223 1706 1542 1333 2189 1506 2569 2095 2068 2257 2685 2717 1944 1989 2433 1742 1553 1778 2113 2260 2530 2701 2618 2562 2349 1710 1486 64 0 0 0
979 3049 2947 1862 1112 1090 1141 1198 1319 1490 1521 1560 1576 2169 2982 2960 2530 2925 2936 2155 2011 2437 1716 1347 1771 1829 2295 2463 2530 2378 2143 2016 1544 231 0 0 0 0
2656 1692 2683 3725 1803 1063 957 1109 1301 1434 1409 1290 1724 2904 3273 4061 3525 3928 3042 3574 2291 1691 1509 1309 1500 1875 2316 2349 2215 1804 1527 1348 1093 525 0 0 0 0
2268 2885 1770 1691 3670 3615 1931 3773 2436 3225 1927 3909 2786 1738 3568 3571 4577 4833 3053 1959 2448 1728 1132 1373 1571 2224 2269 2265 1995 1599 1360 1204 836 66 0 0 0 0
2014 2429 2310 2814 3235 2406 2974 1985 1812 2267 2424 2065 2265 1880 1893 2083 2885 4012 4501 3705 2635 1243 1056 1275 1840 2424 2544 2322 1842 1520 1231 1109 581 6 5 0 0 0
2361 2565 2463 2686 3355 3728 2859 3779 2931 2790 2348 1676 1510 1595 1812 2656 2181 2232 1937 1391 1546 1423 1420 1647 1817 2308 2720 2817 2197 1572 1381 1116 1084 758 445 0 0 0
2912 2602 2999 2256 1712 2464 2186 3288 3626 3162 1784 1492 1388 1427 1471 1695 2956 2335 1919 1783 2559 1466 1199 1665 1693 1806 2558 2330 2192 1373 1463 1287 1030 937 762 85 0 0
3659 3784 3684 1772 1513 1249 1390 1526 1821 3065 4449 2496 1924 2012 4356 2934 1811 1695 1688 1354 1179 1596 2035 1667 1107 954 1661 2389 2515 2129 1391 1368 1130 788 631 107 0 0
3268 3788 2801 1580 2196 2894 1605 1248 1323 1061 834 2592 3413 3319 3354 3586 3681 4073 3042 3119 2295 1750 2000 1313 1257 1714 2085 2550 2335 2110 1523 1267 1076 728 566 189 0 0
2981 3396 3547 3490 3401 3197 3183 2808 2572 2586 2349 1377 1898 2509 2998 3399 3628 3334 4037 4392 3110 2721 3167 2003 1573 1518 1704 2699 2518 2214 1324 1144 982 770 563 212 0 0
2660 2655 2982 3537 3015 2164 2677 3520 3464 3465 1386 1723 1753 1938 1856 1422 1364 1622 1386 998 660 535 636 580 705 959 1247 1714 2597 2379 1918 1414 925 896 524 209 7 0
1995 2361 1406 1666 2119 2277 2757 3149 3217 3204 3319 1990 1783 1525 1465 1374 1137 1246 1641 1574 954 631 574 593 527 880 1267 1435 2590 2090 1755 1540 1346 939 444 176 19 0
1515 1511 1429 863 787 1250 1535 3074 3012 3180 2688 2256 1817 1248 1069 1926 2350 2381 2833 2241 1414 1024 679 605 531 654 883 1111 1653 1919 2033 1783 1510 1143 413 124 35 0
1844 1443 1528 613 292 478 617 696 1126 1648 1968 1609 939 463 363 589 452 750 3151 3330 2487 2568 2375 3308 2013 1569 1179 860 1042 1730 2026 1535 1322 945 683 201 100 32
1700 1411 1041 833 896 715 645 605 559 613 1152 1357 1225 812 332 134 489 912 1529 4455 4156 4065 2927 4068 3430 3098 2716 2024 1572 1637 1476 2315 1623 1089 946 329 84 35
1175 865 663 689 903 991 1014 904 782 752 1051 1231 1204 1032 583 195 197 422 395 367 821 1723 3734 3714 3908 4364 3031 2629 2581 2406 2094 2767 2381 1120 975 653 139 50
1327 1400 1277 1257 1371 1626 1897 2034 2123 1515 1155 1169 1360 1155 833 604 432 477 441 447 788 1248 1264 1317 3859 4070 3694 3723 2642 2673 2555 2507 3500 1884 1254 1107 303 169
1206 1495 1711 1801 2163 1948 2212 2328 2417 1621 1892 1752 1554 1341 1170 1207 1235 1151 740 554 771 1124 1283 1374 1396 3059 2768 3455 2615 2719 2580 2987 2898 2096 932 806 411 577
823 1901 2096 1968 2188 2384 2153 2188 2269 2046 2157 1789 1897 2078 1851 1672 1486 1327 1225 997 1043 1272 1387 1615 1880 1766 2198 2183 2208 1505 2339 2662 2890 2195 1363 718 388 489
610 1210 1983 2253 2475 2631 2401 2487 2503 2394 2251 2384 2395 2103 1870 1877 1815 1602 1392 1267 1122 1335 1646 2149 2284 2213 2506 2053 2196 2400 1128 2260 2277 2057 1357 885 163 96
1067 1488 1484 2110 2240 2543 2812 2955 3163 2854 2837 2705 2433 2295 2080 1985 2017 1845 1575 804 819 1818 2002 2024 2266 2038 4058 3353 2075 1921 2109 1010 787 1102 1567 472 210 88
454 1818 1858 1799 1970 2565 2792 2788 2817 3164 3418 2892 2617 2869 3165 2751 2263 2178 1889 1431 2051 1601 1657 1918 3668 2886 2911 2286 2191 2120 1944 963 685 340 336 267 301 82
791 1456 2688 2619 2361 2891 2613 2838 2805 2829 2815 2853 2908 2649 2905 2720 2848 2691 2808 2543 2332 2523 2933 2748 3162 2447 2355 2109 1578 1337 1090 789 546 414 189 100 78 59